Simultaneous Nadir Overpasses (SNOs) Predictions

Prediction of SNOs between NOAA-19 and TERRA Satellite Orbit:

Table of predicted SNOs for the next 14.0 days since TLE Epoch: 12/29/2018
Index Date (NOAA-19) Time (NOAA-19) Lat,Lon (NOAA-19) SZA (NOAA-19 ) Date (TERRA) Time (TERRA) Lat,Lon (TERRA) SZA (TERRA ) Distance(km) Time Diff (sec)
1 12/30/2018 04:26:24 77.86, 132.87 101.58 12/30/2018 04:26:37 77.87, 132.87 101.59 0.98 13
2 12/30/2018 05:17:19 -77.85, -59.75 78.44 12/30/2018 05:16:05 -77.83, -59.66 78.47 2.55 74
3 01/01/2019 09:59:49 -77.87,-130.41 78.60 01/01/2019 10:00:21 -77.90,-130.42 78.56 4.23 32
4 01/01/2019 10:50:53 77.82, 37.05 101.38 01/01/2019 10:49:48 77.86, 37.00 101.38 3.68 65
5 01/03/2019 15:33:24 77.90, -33.92 101.21 01/03/2019 15:34:05 77.88, -33.97 101.20 2.82 41
6 01/03/2019 16:24:19 -77.85, 133.63 78.83 01/03/2019 16:23:33 -77.85, 133.52 78.85 2.76 46
7 01/05/2019 21:06:50 -77.91, 62.75 79.03 01/05/2019 21:07:49 -77.92, 62.76 79.02 0.44 59
8 01/05/2019 21:57:53 77.87,-129.78 100.94 01/05/2019 21:57:16 77.86,-129.84 100.92 1.69 37
9 01/08/2019 02:40:23 77.92, 159.43 100.69 01/08/2019 02:41:32 77.93, 159.39 100.72 1.73 69
10 01/08/2019 03:31:20 -77.90, -33.23 79.33 01/08/2019 03:31:00 -77.90, -33.10 79.33 3.03 20
11 01/10/2019 09:04:52 77.89, 63.53 100.35 01/10/2019 09:04:43 77.91, 63.52 100.36 2.61 9




NCC Satellite Simultaneous Nadir Overpasses (SNOs) Prediction Service
